CW9454 Weather Reports


Display with metric or nautical units.
time (UTC)temp
F
wind
direction
speed
MPH
gust
MPH
rain 1hr
in
rain 24hr
in
rain mn
in
humidity
%
barometer
mb
20260831024042 77 131 0.0 1.0 0.00 0.02 0.02 89 1019.5
20260831023016 78 130 0.0 0.0 0.00 0.02 0.02 89 1019.4
20260831022030 78 130 0.0 1.0 0.00 0.02 0.02 89 1019.4
20260831021016 78 121 0.0 0.0 0.00 0.02 0.02 89 1019.3
20260831020033 78 121 0.0 0.0 0.00 0.02 0.02 89 1019.3
20260831015020 78 121 0.0 0.0 0.00 0.02 0.02 89 1019.3
20260831014016 79 121 0.0 0.0 0.00 0.02 0.02 89 1019.6
20260831013031 79 121 0.0 0.0 0.00 0.02 0.02 89 1019.5
20260831012024 79 121 0.0 0.0 0.00 0.02 0.02 88 1019.5
20260831011018 79 121 0.0 0.0 0.01 0.02 0.02 88 1019.5
20260831010026 80 121 0.0 0.0 0.02 0.02 0.02 88 1019.3
20260831005021 80 121 0.0 0.0 0.02 0.02 0.02 88 1019.2
20260831004035 80 121 0.0 0.0 0.02 0.02 0.02 87 1019.2
20260831003030 81 121 0.0 0.0 0.02 0.02 0.02 86 1019.1
20260831002023 81 121 0.0 0.0 0.02 0.02 0.02 85 1018.9
20260831001038 81 121 0.0 1.0 0.01 0.01 0.01 85 1018.7
20260831000045 81 120 0.0 1.0 0.00 0.00 0.00 83 1018.6
20260830235016 82 120 0.0 0.0 0.00 0.00 0.00 83 1018.4
20260830234051 82 120 0.0 0.0 0.00 0.00 0.00 82 1018.4
20260830233025 82 120 0.0 0.0 0.00 0.00 0.00 82 1018.5
20260830232019 83 120 0.0 0.0 0.00 0.00 0.00 81 1018.5
20260830231050 83 120 0.0 0.0 0.00 0.00 0.00 81 1018.7
20260830230016 84 120 0.0 2.0 0.00 0.00 0.00 80 1018.6
20260830225026 84 125 0.0 2.0 0.00 0.00 0.00 79 1018.7
20260830224021 84 121 0.0 1.0 0.00 0.00 0.00 77 1018.5
20260830223018 85 132 0.0 0.0 0.00 0.00 0.00 76 1018.6
20260830222031 86 113 0.0 1.0 0.00 0.00 0.00 74 1018.5
20260830221016 87 106 0.0 3.0 0.00 0.00 0.00 72 1018.5
20260830220032 87 125 0.0 3.0 0.00 0.00 0.00 70 1018.4
20260830215017 88 111 0.0 3.0 0.00 0.00 0.00 68 1018.4
20260830214031 89 206 0.0 4.0 0.00 0.00 0.00 63 1018.3
20260830213024 89 245 0.0 5.0 0.00 0.00 0.00 62 1018.1
20260830212018 90 248 1.0 7.0 0.00 0.00 0.00 61 1018.2
20260830211013 90 250 0.0 7.0 0.00 0.00 0.00 60 1018.1
20260830210020 90 261 1.0 4.0 0.00 0.00 0.00 61 1018.3
20260830205014 90 173 0.0 10.0 0.00 0.00 0.00 61 1018.5
20260830204028 90 244 1.0 7.0 0.00 0.00 0.00 60 1018.5
20260830203042 90 247 0.0 7.0 0.00 0.00 0.00 60 1018.4
20260830202015 91 247 0.0 7.0 0.00 0.00 0.00 59 1018.4
20260830201030 91 227 0.0 5.0 0.00 0.00 0.00 59 1018.3
20260830200017 91 228 0.0 4.0 0.00 0.00 0.00 57 1018.5
20260830195032 91 221 0.0 6.0 0.00 0.00 0.00 58 1018.7
20260830194019 91 277 1.0 7.0 0.00 0.00 0.00 57 1018.9
20260830193041 92 250 1.0 8.0 0.00 0.00 0.00 57 1019.0
20260830192026 91 247 3.0 12.0 0.00 0.00 0.00 58 1019.3
20260830191021 91 234 2.0 5.0 0.00 0.00 0.00 59 1019.4
20260830190028 91 291 1.0 10.0 0.00 0.00 0.00 59 1019.5
20260830185023 91 243 1.0 8.0 0.00 0.00 0.00 59 1019.6
20260830184018 92 234 1.0 8.0 0.00 0.00 0.00 58 1019.8
20260830183052 91 254 2.0 9.0 0.00 0.00 0.00 60 1019.8
20260830182027 91 243 2.0 8.0 0.00 0.00 0.00 59 1020.2
20260830181019 91 232 6.0 12.0 0.00 0.00 0.00 59 1020.4
20260830180023 90 167 0.0 5.0 0.00 0.00 0.00 63 1020.4
20260830175018 90 208 1.0 11.0 0.00 0.00 0.00 62 1020.5
20260830174033 89 261 1.0 9.0 0.00 0.00 0.00 65 1020.6
20260830173027 88 233 5.0 12.0 0.00 0.00 0.00 65 1020.8
20260830172014 87 244 1.0 9.0 0.00 0.00 0.00 66 1020.9
20260830171028 87 228 3.0 8.0 0.00 0.00 0.00 68 1021.0
20260830170013 86 179 1.0 4.0 0.00 0.00 0.00 69 1021.1
20260830165025 85 236 3.0 7.0 0.00 0.00 0.00 68 1021.3
20260830164019 85 284 1.0 8.0 0.00 0.00 0.00 70 1021.4
20260830163014 85 242 0.0 8.0 0.00 0.00 0.00 71 1021.4
20260830162028 85 117 0.0 7.0 0.00 0.00 0.00 71 1021.6
20260830161023 84 192 1.0 5.0 0.00 0.00 0.00 72 1021.7
20260830160030 84 252 1.0 8.0 0.00 0.00 0.00 73 1021.6
20260830155046 83 275 1.0 7.0 0.00 0.00 0.00 74 1021.7
20260830154019 83 96 0.0 5.0 0.00 0.00 0.00 74 1021.8
20260830153034 83 184 1.0 8.0 0.00 0.00 0.00 73 1021.8
20260830152028 83 197 0.0 6.0 0.00 0.00 0.00 74 1021.8
20260830151041 83 183 0.0 4.0 0.00 0.00 0.00 76 1021.6
20260830150027 82 237 0.0 6.0 0.00 0.00 0.00 78 1021.6
20260830145021 82 234 1.0 6.0 0.00 0.00 0.00 80 1021.5
20260830144016 81 251 1.0 6.0 0.00 0.00 0.00 82 1021.7
20260830143030 79 220 1.0 6.0 0.00 0.00 0.00 84 1022.0
20260830142024 78 191 1.0 10.0 0.00 0.00 0.00 85 1021.9
20260830141039 78 256 1.0 8.0 0.00 0.00 0.00 87 1021.9
20260830140027 77 192 2.0 8.0 0.00 0.00 0.00 88 1021.9
20260830135037 76 257 3.0 8.0 0.00 0.00 0.00 89 1022.1
20260830134022 76 175 1.0 6.0 0.00 0.00 0.00 91 1022.2
20260830133015 75 199 1.0 6.0 0.00 0.00 0.00 92 1022.4
20260830132028 74 219 1.0 8.0 0.00 0.00 0.00 93 1022.7
20260830131021 74 124 0.0 5.0 0.00 0.00 0.00 94 1022.8
20260830130028 73 248 1.0 5.0 0.00 0.00 0.00 94 1022.8
20260830125024 73 248 1.0 5.0 0.00 0.00 0.00 94 1023.0
20260830124019 72 178 0.0 1.0 0.00 0.00 0.00 94 1023.0
20260830123033 72 177 0.0 2.0 0.00 0.00 0.00 94 1023.2
20260830122027 71 148 0.0 1.0 0.00 0.00 0.00 94 1023.1
20260830121042 71 138 0.0 2.0 0.00 0.00 0.00 94 1023.1
20260830120029 70 137 0.0 4.0 0.00 0.00 0.00 94 1023.1
20260830115040 70 119 0.0 0.0 0.00 0.00 0.00 93 1023.0
20260830114055 69 123 0.0 0.0 0.00 0.00 0.00 93 1023.1
20260830113019 69 123 0.0 0.0 0.00 0.00 0.00 92 1023.2
20260830112042 69 123 0.0 0.0 0.00 0.00 0.00 92 1023.1
20260830111035 69 123 0.0 3.0 0.00 0.00 0.00 92 1023.1
20260830110033 69 122 0.0 0.0 0.00 0.00 0.00 92 1022.9
20260830105029 69 122 0.0 0.0 0.00 0.00 0.00 92 1023.1
20260830104044 69 122 0.0 1.0 0.00 0.00 0.00 92 1023.0
20260830103019 69 122 0.0 0.0 0.00 0.00 0.00 92 1023.0
20260830102032 69 122 0.0 0.0 0.00 0.00 0.00 92 1022.9
20260830101017 69 122 0.0 0.0 0.00 0.00 0.00 92 1022.9
20260830100049 69 122 0.0 0.0 0.00 0.00 0.00 92 1022.9
20260830095043 69 122 0.0 0.0 0.00 0.00 0.00 92 1023.0
20260830094017 69 122 0.0 0.0 0.00 0.00 0.00 92 1023.0
20260830093051 68 122 0.0 1.0 0.00 0.00 0.00 92 1023.0
20260830092025 68 122 0.0 1.0 0.00 0.00 0.00 91 1022.9
20260830091020 68 122 0.0 0.0 0.00 0.00 0.00 91 1022.7
20260830090026 67 122 0.0 0.0 0.00 0.00 0.00 91 1022.6
20260830085042 67 122 0.0 0.0 0.00 0.00 0.00 91 1022.6
20260830084016 67 122 0.0 0.0 0.00 0.00 0.00 91 1022.9
20260830083050 67 122 0.0 0.0 0.00 0.00 0.00 90 1022.9
20260830082023 67 122 0.0 0.0 0.00 0.00 0.00 90 1022.9
20260830081016 67 122 0.0 0.0 0.00 0.00 0.00 90 1022.9
20260830080024 67 122 0.0 0.0 0.00 0.00 0.00 90 1022.7
20260830075018 67 122 0.0 0.0 0.00 0.00 0.00 90 1022.9
20260830074033 67 122 0.0 0.0 0.00 0.00 0.00 90 1022.8
20260830073026 67 122 0.0 0.0 0.00 0.00 0.00 90 1023.0
20260830072040 67 122 0.0 0.0 0.00 0.00 0.00 90 1023.1
20260830071026 67 122 0.0 0.0 0.00 0.00 0.00 90 1023.0
20260830070014 67 122 0.0 0.0 0.00 0.00 0.00 90 1023.2
20260830065028 67 122 0.0 0.0 0.00 0.00 0.00 89 1023.0
20260830064042 67 122 0.0 0.0 0.00 0.00 0.00 89 1023.2
20260830063041 67 122 0.0 0.0 0.00 0.00 0.00 89 1023.0
20260830062032 67 122 0.0 0.0 0.00 0.00 0.00 89 1023.2
20260830061019 67 122 0.0 0.0 0.00 0.00 0.00 89 1023.3
20260830060036 67 122 0.0 0.0 0.00 0.00 0.00 89 1023.5
20260830055021 67 122 0.0 0.0 0.00 0.00 0.00 88 1023.5
20260830054035 67 122 0.0 0.0 0.00 0.00 0.00 88 1023.5
20260830053037 66 122 0.0 0.0 0.00 0.00 0.00 87 1023.5
20260830052021 67 122 0.0 0.0 0.00 0.00 0.00 87 1023.5
20260830051016 67 122 0.0 0.0 0.00 0.00 0.00 87 1023.5
20260830050023 67 122 0.0 0.0 0.00 0.00 0.00 87 1023.4
20260830045036 67 122 0.0 0.0 0.00 0.00 0.00 87 1023.4
20260830044029 67 122 0.0 0.0 0.00 0.00 0.00 87 1023.3
20260830043052 67 122 0.0 0.0 0.00 0.00 0.00 86 1023.3
20260830042015 67 122 0.0 0.0 0.00 0.00 0.00 86 1023.2
20260830041030 67 122 0.0 0.0 0.00 0.00 0.00 86 1023.2
20260830040017 67 122 0.0 0.0 0.00 0.00 0.00 86 1023.2
20260830035030 67 122 0.0 0.0 0.00 0.00 0.00 85 1023.1
20260830034022 68 122 0.0 0.0 0.00 0.00 0.00 85 1023.2
20260830033019 68 122 0.0 0.0 0.00 0.00 0.00 85 1023.0
20260830032033 68 122 0.0 0.0 0.00 0.00 0.00 84 1023.0
20260830031027 68 122 0.0 0.0 0.00 0.00 0.00 84 1023.0
20260830030014 68 122 0.0 0.0 0.00 0.00 0.00 84 1023.1
20260830025029 68 122 0.0 0.0 0.00 0.00 0.00 84 1023.0